Regional Weather Roundup
Issued by NWS Raleigh/Durham, NC

Current Version | Previous Version | Text Only | Print | Product List | Glossary On
Versions: 1 2 3 4 5 6 7 8 9 10 11 12 13 14 15 16 17 18 19 20 21 22 23 24 25 26 27 28 29 30 31 32 33 34 35 36 37 38 39 40 41 42 43 44 45 46 47 48 49 50
000
ASUS42 KRAH 201210
RWRRAH
NORTH CAROLINA WEATHER ROUNDUP
NATIONAL WEATHER SERVICE RALEIGH NC
800 AM EDT SAT SEP 20 2014

NOTE: "FAIR" INDICATES FEW OR NO CLOUDS BELOW 12,000 FEET WITH NO
SIGNIFICANT WEATHER AND/OR OBSTRUCTIONS TO VISIBILITY.

NCZ001-053-055-056-065-067-201300-
WESTERN NORTH CAROLINA

CITY           SKY/WX    TMP DP  RH WIND       PRES   REMARKS
ASHEVILLE      PTCLDY    62  58  86 CALM      30.27R
JEFFERSON      FOG       56  55  98 CALM      30.30R VSB 3/4
HICKORY        CLEAR     60  58  92 N3        30.25R FOG
RUTHERFORDTON  NOT AVBL
MOUNT AIRY     CLEAR     63  59  87 CALM      30.28R
$$

NCZ021-022-025-041-071-084-088-201300-
CENTRAL NORTH CAROLINA

CITY           SKY/WX    TMP DP  RH WIND       PRES   REMARKS
CHARLOTTE      PTCLDY    61  58  90 N7        30.21S
GREENSBORO     MOSUNNY   59  58  96 N7        30.24R FOG
WINSTON-SALEM  CLOUDY    61  58  90 NE5       30.25S FOG
RALEIGH-DURHAM MOSUNNY   60  56  86 CALM      30.23R
FORT BRAGG     PTSUNNY   61  59  91 VRB5      30.17S
FAYETTEVILLE   PTSUNNY   62  59  90 N10       30.16S
$$

NCZ011-015-027-028-043-044-047-080-103-201300-
NORTHEASTERN NORTH CAROLINA

CITY           SKY/WX    TMP DP  RH WIND       PRES   REMARKS
ROANOKE RAPIDS FAIR      55  55 100 N5        30.21S FOG
ROCKY MT-WILSO MOSUNNY   61  58  90 N7        30.20S
GREENVILLE     MOSUNNY   63  61  94 NE5       30.19R
WASHINGTON     CLOUDY    64  61  91 NE6       30.17R
ELIZABETH CITY NOT AVBL
MANTEO         CLOUDY    72  68  89 NE12      30.16S
CAPE HATTERAS  CLOUDY    71  70  96 NE9G20    30.11S
$$

NCZ078-087-090-091-093-098-101-201300-
SOUTHEASTERN NORTH CAROLINA

CITY           SKY/WX    TMP DP  RH WIND       PRES   REMARKS
LUMBERTON      PTSUNNY   64  59  83 NE9       30.14S
GOLDSBORO      PTSUNNY   63  62  98 N1        30.16S
KENANSVILLE    CLOUDY    63  61  94 N3        30.17R
NEW BERN       CLOUDY    69  63  81 N7        30.15S
CHERRY POINT   CLOUDY    71  65  81 NE13      30.14S
BEAUFORT       CLOUDY    72  67  84 N12       30.11F
JACKSONVILLE   CLOUDY    66  62  87 N7        30.13R
WILMINGTON     CLOUDY    66  61  84 NE13      30.11S
$$




USA.gov is the U.S. government's official web portal to all federal, state and local government web resources and services.